DW8692 Weather Reports


time (UTC)temp
C
wind
direction
speed
KPH
gust
KPH
rain 1hr
cm
rain 24hr
cm
rain mn
cm
humidity
%
barometer
mb
20260504035538 14 340 14.5 0.0 0.00 0.00 0.00 41 1001.9
20260504035037 14 345 16.1 0.0 0.00 0.00 0.00 40 1001.7
20260504034535 14 306 17.7 0.0 0.00 0.00 0.00 40 1001.6
20260504034034 15 342 19.3 0.0 0.00 0.00 0.00 39 1001.5
20260504033633 15 342 19.3 0.0 0.00 0.00 0.00 39 1001.3
20260504033035 15 5 19.3 0.0 0.00 0.00 0.00 39 1001.3
20260504032535 15 346 20.9 0.0 0.00 0.00 0.00 38 1001.3
20260504032032 15 346 22.5 0.0 0.00 0.00 0.00 38 1001.1
20260504031532 16 311 20.9 0.0 0.00 0.00 0.00 36 1000.9
20260504031028 17 329 17.7 0.0 0.00 0.00 0.00 35 1000.8
20260504030531 17 304 16.1 0.0 0.00 0.00 0.00 36 1000.1
20260504030027 17 288 14.5 0.0 0.00 0.00 0.00 36 999.8
20260504025526 17 293 12.9 0.0 0.00 0.00 0.00 36 999.8
20260504025025 17 275 14.5 0.0 0.00 0.00 0.00 36 999.7
20260504024523 18 303 16.1 0.0 0.00 0.00 0.00 35 999.7
20260504024028 18 274 16.1 0.0 0.00 0.00 0.00 35 999.7
20260504023623 18 284 16.1 0.0 0.00 0.00 0.00 35 999.6
20260504023022 18 276 17.7 0.0 0.00 0.00 0.00 35 999.6
20260504022523 18 296 17.7 0.0 0.00 0.00 0.00 35 999.5
20260504022021 18 310 17.7 0.0 0.00 0.00 0.00 34 999.4
20260504021520 18 306 19.3 0.0 0.00 0.00 0.00 34 999.5
20260504021021 19 299 19.3 0.0 0.00 0.00 0.00 33 999.6
20260504020518 19 298 20.9 0.0 0.00 0.00 0.00 33 999.5
20260504020017 20 305 22.5 0.0 0.00 0.00 0.00 33 999.6
20260504015515 20 313 24.1 0.0 0.00 0.00 0.00 32 999.5
20260504015014 20 300 24.1 0.0 0.00 0.00 0.00 32 999.5
20260504014522 20 294 22.5 0.0 0.00 0.00 0.00 31 999.6
20260504014012 20 316 22.5 0.0 0.00 0.00 0.00 30 999.5
20260504013613 21 301 22.5 0.0 0.00 0.00 0.00 28 999.4
20260504013011 21 287 22.5 0.0 0.00 0.00 0.00 28 999.4
20260504012511 21 293 22.5 0.0 0.00 0.00 0.00 26 999.4
20260504012013 22 280 22.5 0.0 0.00 0.00 0.00 25 999.5
20260504011509 22 295 17.7 0.0 0.00 0.00 0.00 24 999.5
20260504011010 22 265 16.1 0.0 0.00 0.00 0.00 25 999.4
20260504010508 21 288 17.7 0.0 0.00 0.00 0.00 25 999.5
20260504010007 21 275 17.7 0.0 0.00 0.00 0.00 25 999.5
20260504005506 22 252 17.7 0.0 0.00 0.00 0.00 24 999.6
20260504005005 22 287 19.3 0.0 0.00 0.00 0.00 24 999.7
20260504004504 22 278 17.7 0.0 0.00 0.00 0.00 23 999.8
20260504004002 22 267 20.9 0.0 0.00 0.00 0.00 23 999.9
20260504003605 22 298 25.7 0.0 0.00 0.00 0.00 22 1000.1
20260504003006 22 286 22.5 0.0 0.00 0.00 0.00 22 1000.0
20260504002502 22 262 20.9 0.0 0.00 0.00 0.00 22 1000.0
20260504002002 22 306 20.9 0.0 0.00 0.00 0.00 22 1000.1
20260504001502 23 290 17.7 0.0 0.00 0.00 0.00 23 1000.1
20260504001100 23 265 19.3 0.0 0.00 0.00 0.00 23 1000.3
20260504000559 23 264 22.5 0.0 0.00 0.00 0.00 23 1000.3
20260504000129 23 266 22.5 0.0 0.00 0.00 0.00 22 1000.4
20260503235559 23 281 22.5 0.0 0.00 0.00 0.00 22 1000.3
20260503235059 23 281 22.5 0.0 0.00 0.00 0.00 23 1000.3
20260503234558 23 306 22.5 0.0 0.00 0.00 0.00 23 1000.5
20260503234057 23 267 24.1 0.0 0.00 0.00 0.00 24 1000.3
20260503233557 22 268 24.1 0.0 0.00 0.00 0.00 25 1000.7
20260503233055 22 264 24.1 0.0 0.00 0.00 0.00 25 1000.7
20260503232554 23 271 20.9 0.0 0.00 0.00 0.00 25 1000.7
20260503232053 23 257 19.3 0.0 0.00 0.00 0.00 25 1000.9
20260503231553 23 263 19.3 0.0 0.00 0.00 0.00 25 1001.1
20260503231052 23 260 22.5 0.0 0.00 0.00 0.00 25 1001.1
20260503230551 23 293 24.1 0.0 0.00 0.00 0.00 25 1001.4
20260503230053 23 275 22.5 0.0 0.00 0.00 0.00 25 1001.6
20260503225550 23 271 22.5 0.0 0.00 0.00 0.00 25 1001.5
20260503225050 22 271 24.1 0.0 0.00 0.00 0.00 24 1001.7
20260503224549 22 269 24.1 0.0 0.00 0.00 0.00 24 1001.9
20260503224050 23 259 17.7 0.0 0.00 0.00 0.00 24 1001.9
20260503223548 23 265 19.3 0.0 0.00 0.00 0.00 23 1002.2
20260503223048 23 299 17.7 0.0 0.00 0.00 0.00 22 1002.2
20260503222548 23 252 19.3 0.0 0.00 0.00 0.00 22 1002.3
20260503222047 22 255 20.9 0.0 0.00 0.00 0.00 23 1002.4
20260503221552 22 261 22.5 0.0 0.00 0.00 0.00 23 1002.6
20260503221047 22 273 22.5 0.0 0.00 0.00 0.00 23 1002.7
20260503220547 22 284 19.3 0.0 0.00 0.00 0.00 23 1002.7
20260503220045 22 280 19.3 0.0 0.00 0.00 0.00 24 1002.7
20260503215545 22 281 19.3 0.0 0.00 0.00 0.00 23 1002.8
20260503215044 22 258 16.1 0.0 0.00 0.00 0.00 25 1002.9
20260503214543 22 302 19.3 0.0 0.00 0.00 0.00 26 1003.0
20260503214042 22 275 22.5 0.0 0.00 0.00 0.00 26 1003.2
20260503213544 22 289 22.5 0.0 0.00 0.00 0.00 26 1003.4
20260503213044 22 255 22.5 0.0 0.00 0.00 0.00 26 1003.4
20260503212541 22 267 19.3 0.0 0.00 0.00 0.00 27 1003.5
20260503212041 22 263 17.7 0.0 0.00 0.00 0.00 27 1003.6
20260503211541 22 294 19.3 0.0 0.00 0.00 0.00 29 1003.7
20260503211039 22 266 20.9 0.0 0.00 0.00 0.00 28 1003.8
20260503210539 21 263 20.9 0.0 0.00 0.00 0.00 27 1003.8
20260503210038 22 277 20.9 0.0 0.00 0.00 0.00 28 1004.0
20260503205537 22 275 20.9 0.0 0.00 0.00 0.00 27 1004.1
20260503205037 22 287 20.9 0.0 0.00 0.00 0.00 26 1004.2
20260503204540 22 284 19.3 0.0 0.00 0.00 0.00 26 1004.2
20260503204037 22 272 20.9 0.0 0.00 0.00 0.00 25 1004.2
20260503203539 22 261 20.9 0.0 0.00 0.00 0.00 26 1004.4
20260503203038 22 290 19.3 0.0 0.00 0.00 0.00 25 1004.3
20260503202537 23 277 17.7 0.0 0.00 0.00 0.00 28 1004.3
20260503202036 22 284 19.3 0.0 0.00 0.00 0.00 27 1004.3
20260503201536 22 290 19.3 0.0 0.00 0.00 0.00 28 1004.4
20260503201034 22 286 20.9 0.0 0.00 0.00 0.00 29 1004.4
20260503200537 22 269 22.5 0.0 0.00 0.00 0.00 28 1004.8
20260503200034 22 247 22.5 0.0 0.00 0.00 0.00 31 1004.9
20260503195532 22 263 22.5 0.0 0.00 0.00 0.00 31 1004.9
20260503195034 22 267 20.9 0.0 0.00 0.00 0.00 29 1005.3
20260503194533 22 266 20.9 0.0 0.00 0.00 0.00 29 1005.2
20260503194031 22 269 20.9 0.0 0.00 0.00 0.00 29 1005.3
20260503193532 22 271 22.5 0.0 0.00 0.00 0.00 31 1005.5
20260503193039 21 360 24.1 0.0 0.00 0.00 0.00 31 1005.6
20260503192528 21 274 22.5 0.0 0.00 0.00 0.00 29 1005.8
20260503192027 22 261 20.9 0.0 0.00 0.00 0.00 28 1005.8
20260503191527 22 249 19.3 0.0 0.00 0.00 0.00 29 1006.0
20260503191029 22 299 22.5 0.0 0.00 0.00 0.00 30 1006.1
20260503190525 21 259 24.1 0.0 0.00 0.00 0.00 30 1006.4
20260503190024 21 302 22.5 0.0 0.00 0.00 0.00 30 1006.3
20260503185524 21 257 20.9 0.0 0.00 0.00 0.00 29 1006.5
20260503185023 21 265 19.3 0.0 0.00 0.00 0.00 31 1006.6
20260503184526 21 261 20.9 0.0 0.00 0.00 0.00 31 1006.8
20260503184024 21 286 22.5 0.0 0.00 0.00 0.00 30 1007.0
20260503183521 21 257 20.9 0.0 0.00 0.00 0.00 31 1007.1
20260503183020 21 232 20.9 0.0 0.00 0.00 0.00 31 1007.1
20260503182519 21 250 22.5 0.0 0.00 0.00 0.00 31 1007.2
20260503182021 21 238 17.7 0.0 0.00 0.00 0.00 33 1007.3
20260503181519 21 238 19.3 0.0 0.00 0.00 0.00 32 1007.5
20260503181019 21 265 20.9 0.0 0.00 0.00 0.00 32 1007.6
20260503180518 21 302 20.9 0.0 0.00 0.00 0.00 32 1007.6
20260503180020 20 244 20.9 0.0 0.00 0.00 0.00 33 1007.6
20260503175517 20 239 20.9 0.0 0.00 0.00 0.00 32 1007.8
20260503175016 20 289 19.3 0.0 0.00 0.00 0.00 33 1008.1
20260503174515 20 267 19.3 0.0 0.00 0.00 0.00 32 1008.2
20260503174014 20 245 20.9 0.0 0.00 0.00 0.00 32 1008.3
20260503173514 20 294 20.9 0.0 0.00 0.00 0.00 33 1008.4
20260503173022 20 265 20.9 0.0 0.00 0.00 0.00 32 1008.4
20260503172513 20 270 19.3 0.0 0.00 0.00 0.00 33 1008.5
20260503172012 20 257 19.3 0.0 0.00 0.00 0.00 33 1008.6
20260503171520 20 245 19.3 0.0 0.00 0.00 0.00 33 1008.6
20260503171010 20 257 20.9 0.0 0.00 0.00 0.00 33 1008.8
20260503170509 20 299 20.9 0.0 0.00 0.00 0.00 33 1008.8
20260503150555 17 250 19.3 0.0 0.00 0.00 0.00 37 1010.7
20260503131046 11 141 14.5 0.0 0.00 0.00 0.00 47 1011.7
20260503130548 10 148 12.9 0.0 0.00 0.00 0.00 48 1011.7
20260503110538 6 233 4.8 0.0 0.00 0.00 0.00 55 1012.5
20260503081533 3 355 0.0 0.0 0.00 0.00 0.00 61 1013.5
20260503081031 3 355 0.0 0.0 0.00 0.00 0.00 62 1013.4
20260503080531 3 355 0.0 0.0 0.00 0.00 0.00 62 1013.4
20260503072533 2 355 0.0 0.0 0.00 0.00 0.00 66 1013.4
20260503072028 2 355 0.0 0.0 0.00 0.00 0.00 65 1013.4
20260503071534 2 355 0.0 0.0 0.00 0.00 0.00 63 1013.5
20260503071027 2 355 0.0 0.0 0.00 0.00 0.00 63 1013.5
20260503070527 2 355 0.0 0.0 0.00 0.00 0.00 63 1013.5
20260503055014 5 351 0.0 0.0 0.00 0.00 0.00 55 1013.5
20260503054513 5 351 0.0 0.0 0.00 0.00 0.00 55 1013.4
20260503054012 5 351 0.0 0.0 0.00 0.00 0.00 56 1013.5
20260503053512 5 351 0.0 0.0 0.00 0.00 0.00 55 1013.5
20260503052510 6 351 0.0 0.0 0.00 0.00 0.00 53 1013.4
20260503052009 6 351 0.0 0.0 0.00 0.00 0.00 52 1013.4
20260503051509 6 351 0.0 0.0 0.00 0.00 0.00 53 1013.5
20260503051012 6 351 0.0 0.0 0.00 0.00 0.00 53 1013.4
20260503050512 6 351 0.0 0.0 0.00 0.00 0.00 52 1013.5
20260503050012 7 351 1.6 0.0 0.00 0.00 0.00 52 1013.5
20260503045508 7 351 1.6 0.0 0.00 0.00 0.00 51 1013.5
20260503045012 7 351 1.6 0.0 0.00 0.00 0.00 51 1013.6
20260503044507 7 351 0.0 0.0 0.00 0.00 0.00 52 1013.6
20260503044010 6 351 0.0 0.0 0.00 0.00 0.00 52 1013.6
20260503043506 6 351 0.0 0.0 0.00 0.00 0.00 53 1013.6
20260503042507 6 351 1.6 0.0 0.00 0.00 0.00 52 1013.6
20260503042006 6 351 1.6 0.0 0.00 0.00 0.00 52 1013.7
20260503041506 6 351 3.2 0.0 0.00 0.00 0.00 52 1013.7
20260503041005 6 351 1.6 0.0 0.00 0.00 0.00 53 1013.6
20260503040505 6 351 0.0 0.0 0.00 0.00 0.00 51 1013.7
20260503040003 6 355 0.0 0.0 0.00 0.00 0.00 52 1013.6